Weather History for Kerrville, TX

Change the Weather History Date:

Monday, October 1, 2012

  Actual Average (KHDO) Record (KHDO)
Temperature  
Mean Temperature 66 °F -  
Max Temperature 78 °F 84 °F 95 °F (2014)
Min Temperature 55 °F 61 °F 50 °F (1996)
Cooling Degree Days 2    
Growing Degree Days 16 (Base 50)    
Moisture  
Dew Point 57 °F    
Average Humidity 77    
Maximum Humidity 100    
Minimum Humidity 41    
Precipitation  
Precipitation 0.07 in - - ()
Sea Level Pressure  
Sea Level Pressure 29.93 in    
Wind  
Wind Speed 3 mph (NW)    
Max Wind Speed 16 mph    
Max Gust Speed 25 mph    
Visibility 10 miles    
Events Rain , Thunderstorm    
Averages and records for this station are not official NWS values.
T = Trace of Precipitation, MM = Missing Value Source: NWS Daily Summary

Daily Weather History Graph

Daily Weather History Graph

Search for Another Location

Airport:

Trip Planner

Search our weather history database for the weather conditions in past years. The results will help you decide how hot, cold, wet, or windy it might be!

Date:

Astronomy

Oct. 01, 2012 Rise Set
Actual Time 7:30 AM CDT 7:21 PM CDT
Civil Twilight 7:06 AM CDT 7:44 PM CDT
Nautical Twilight 6:38 AM CDT 8:12 PM CDT
Astronomical Twilight 6:10 AM CDT 8:40 PM CDT
Moon 8:11 PM CDT (10/1) 8:50 AM CDT (10/1)
Length of Visible Light 12h 38m
Length of Day
11h 51m
Full, 98% of the Moon is Illuminated
Oct 1
Full
Oct 8
Last Quarter
Oct 15
New
Oct 21
First Quarter
Oct 29
Full

Hourly Weather History & Observations

Time (CDT) Temp. Dew Point Humidity Pressure Visibility Wind Dir Wind Speed Gust Speed Precip Events Conditions
12:15 AM 60.8 °F 59.0 °F 94% 29.93 in 10.0 mi North 3.5 mph - N/A   Clear
12:35 AM 60.8 °F 59.0 °F 94% 29.93 in 10.0 mi North 4.6 mph - N/A   Clear
12:55 AM 60.8 °F 59.0 °F 94% 29.93 in 10.0 mi North 3.5 mph - N/A   Clear
1:15 AM 59.0 °F 55.4 °F 88% 29.93 in 10.0 mi Calm Calm - N/A   Clear
1:35 AM 59.0 °F 55.4 °F 88% 29.92 in 10.0 mi North 3.5 mph - N/A   Clear
1:55 AM 59.0 °F 55.4 °F 88% 29.93 in 10.0 mi Calm Calm - N/A   Clear
2:35 AM 59.0 °F 55.4 °F 88% 29.93 in 10.0 mi North 3.5 mph - N/A   Clear
2:55 AM 59.0 °F 55.4 °F 88% 29.92 in 10.0 mi NNW 3.5 mph - N/A   Clear
3:15 AM 59.0 °F 55.4 °F 88% 29.92 in 10.0 mi Calm Calm - N/A   Clear
3:35 AM 55.4 °F 53.6 °F 94% 29.91 in 10.0 mi NNW 3.5 mph - N/A   Clear
3:55 AM 59.0 °F 55.4 °F 88% 29.91 in 10.0 mi Calm Calm - N/A   Clear
4:15 AM 57.2 °F 55.4 °F 94% 29.90 in 10.0 mi NNW 4.6 mph - N/A   Clear
4:35 AM 59.0 °F 55.4 °F 88% 29.91 in 10.0 mi NW 4.6 mph - N/A   Clear
4:55 AM 57.2 °F 55.4 °F 94% 29.91 in 10.0 mi Calm Calm - N/A   Clear
5:15 AM 55.4 °F 55.4 °F 100% 29.91 in 10.0 mi Calm Calm - N/A   Clear
5:35 AM 55.4 °F 53.6 °F 94% 29.91 in 10.0 mi Calm Calm - N/A   Clear
5:55 AM 55.4 °F 53.6 °F 94% 29.91 in 10.0 mi Calm Calm - N/A   Clear
6:15 AM 55.4 °F 53.6 °F 94% 29.91 in 10.0 mi Calm Calm - N/A   Clear
6:35 AM 55.4 °F 53.6 °F 94% 29.92 in 7.0 mi Calm Calm - N/A   Clear
7:15 AM 55.4 °F 53.6 °F 94% 29.92 in 10.0 mi Calm Calm - N/A   Clear
7:35 AM 55.4 °F 53.6 °F 94% 29.93 in 10.0 mi WSW 4.6 mph - N/A   Clear
7:55 AM 55.4 °F 53.6 °F 94% 29.93 in 7.0 mi Calm Calm - N/A   Clear
8:15 AM 55.4 °F 53.6 °F 94% 29.94 in 10.0 mi Calm Calm - N/A   Clear
8:35 AM 59.0 °F 55.4 °F 88% 29.94 in 10.0 mi Calm Calm - N/A   Clear
8:55 AM 59.0 °F 55.4 °F 88% 29.94 in 10.0 mi Calm Calm - N/A   Clear
9:15 AM 60.8 °F 57.2 °F 88% 29.94 in 10.0 mi Calm Calm - N/A   Clear
9:35 AM 62.6 °F 59.0 °F 88% 29.95 in 10.0 mi Calm Calm - N/A   Clear
9:55 AM 64.4 °F 59.0 °F 83% 29.95 in 10.0 mi Calm Calm - N/A   Clear
10:15 AM 64.4 °F 60.8 °F 88% 29.95 in 10.0 mi Calm Calm - N/A   Clear
10:35 AM 69.8 °F 60.8 °F 73% 29.95 in 10.0 mi Calm Calm - N/A   Clear
10:55 AM 71.6 °F 60.8 °F 69% 29.94 in 10.0 mi Calm Calm - N/A   Clear
11:15 AM 71.6 °F 59.0 °F 64% 29.95 in 10.0 mi West 5.8 mph - N/A   Scattered Clouds
11:35 AM 71.6 °F 60.8 °F 69% 29.97 in 10.0 mi NW 9.2 mph - N/A   Overcast
11:55 AM 68.0 °F 60.8 °F 78% 29.98 in 5.0 mi NW 11.5 mph 25.3 mph 0.02 in Rain Heavy Rain
12:15 PM 62.6 °F 60.8 °F 94% 29.96 in 7.0 mi West 4.6 mph - 0.03 in Rain , Thunderstorm Light Thunderstorms and Rain
12:35 PM 62.6 °F 60.8 °F 94% 29.95 in 10.0 mi Calm Calm - 0.05 in Rain , Thunderstorm Light Thunderstorms and Rain
12:55 PM 62.6 °F 60.8 °F 94% 29.95 in 10.0 mi WNW 4.6 mph - 0.05 in Rain Light Rain
1:15 PM 64.4 °F 60.8 °F 88% 29.93 in 10.0 mi Calm Calm - N/A   Scattered Clouds
1:35 PM 68.0 °F 62.6 °F 83% 29.93 in 10.0 mi WSW 3.5 mph - N/A   Clear
1:55 PM 69.8 °F 64.4 °F 83% 29.92 in 10.0 mi WSW 5.8 mph - N/A   Clear
2:15 PM 71.6 °F 62.6 °F 73% 29.91 in 10.0 mi NW 3.5 mph - N/A   Clear
2:35 PM 73.4 °F 62.6 °F 69% 29.90 in 10.0 mi NW 6.9 mph - N/A   Clear
2:55 PM 77.0 °F 62.6 °F 61% 29.89 in 10.0 mi NW 4.6 mph - N/A   Clear
3:15 PM 77.0 °F 60.8 °F 57% 29.88 in 10.0 mi WNW 5.8 mph - N/A   Clear
3:35 PM 78.8 °F 59.0 °F 51% 29.88 in 10.0 mi NW 10.4 mph - N/A   Scattered Clouds
4:15 PM 78.8 °F 55.4 °F 44% 29.88 in 10.0 mi NW 13.8 mph 18.4 mph N/A   Scattered Clouds
4:35 PM 78.8 °F 55.4 °F 44% 29.86 in 10.0 mi NNW 12.7 mph - N/A   Scattered Clouds
4:55 PM 78.8 °F 55.4 °F 44% 29.86 in 10.0 mi NNW 13.8 mph 21.9 mph N/A   Scattered Clouds
5:15 PM 78.8 °F 55.4 °F 44% 29.87 in 10.0 mi NNW 13.8 mph 19.6 mph N/A   Scattered Clouds
5:35 PM 78.8 °F 53.6 °F 42% 29.88 in 10.0 mi NNW 12.7 mph 23.0 mph N/A   Scattered Clouds
5:55 PM 77.0 °F 51.8 °F 41% 29.88 in 10.0 mi NNW 16.1 mph 21.9 mph N/A   Clear
6:15 PM 77.0 °F 53.6 °F 44% 29.90 in 10.0 mi NNW 9.2 mph - N/A   Clear
6:35 PM 77.0 °F 53.6 °F 44% 29.90 in 10.0 mi NNW 8.1 mph - N/A   Clear
6:55 PM 77.0 °F 55.4 °F 47% 29.90 in 10.0 mi NNW 6.9 mph - N/A   Clear
7:15 PM 71.6 °F 53.6 °F 53% 29.91 in 10.0 mi NNW 4.6 mph - N/A   Scattered Clouds
7:35 PM 71.6 °F 53.6 °F 53% 29.92 in 10.0 mi North 5.8 mph - N/A   Scattered Clouds
7:55 PM 71.6 °F 53.6 °F 53% 29.92 in 10.0 mi NNE 3.5 mph - N/A   Clear
8:15 PM 68.0 °F 53.6 °F 60% 29.93 in 10.0 mi North 3.5 mph - N/A   Clear
8:35 PM 68.0 °F 53.6 °F 60% 29.93 in 10.0 mi Calm Calm - N/A   Clear
8:55 PM 66.2 °F 55.4 °F 68% 29.95 in 10.0 mi Calm Calm - N/A   Clear
9:15 PM 64.4 °F 53.6 °F 68% 29.95 in 10.0 mi Calm Calm - N/A   Clear
9:35 PM 62.6 °F 55.4 °F 77% 29.96 in 10.0 mi Calm Calm - N/A   Clear
10:15 PM 60.8 °F 55.4 °F 82% 29.97 in 10.0 mi Calm Calm - N/A   Clear
10:55 PM 60.8 °F 55.4 °F 82% 29.98 in 10.0 mi Calm Calm - N/A   Scattered Clouds
11:15 PM 59.0 °F 55.4 °F 88% 29.98 in 10.0 mi Calm Calm - N/A   Clear
11:35 PM 60.8 °F 55.4 °F 82% 29.98 in 10.0 mi Calm Calm - N/A   Clear
11:55 PM 59.0 °F 53.6 °F 82% 29.98 in 10.0 mi Calm Calm - N/A   Clear